Weather in Lagos

Nigeria     6°38′28″N   3°18′34″E
temp.,
°C
wind,
m/s
gust,
m/s
humid.,
%
clouds,
%
prec.,
mm/h
press.,
hPa
HPBL,
m
12 may, wed
wed1201:00+26sw36805 0.0 1012373
04:00+25sw25845 0.0 1011297
07:00+26sw25845 0.0 1012249
10:00+32ssw345539 0.0 10131337
13:00+33s435191 0.1 10111540
16:00+34ssw434859 0.0 10091727
19:00+28ssw487032 0.3 1009600
22:00+26sw37810 0.5 1012482
13 may, thu
thu1301:00+26w128424 0.5 1012195
04:00+25wsw3888100 0.0 1010373
07:00+25w2685100 0.0 1010349
10:00+30sw346356 0.0 1011922
13:00+35s434397 0.0 10102056
16:00+33s544691 0.0 10081492
19:00+29ssw46635 0.0 1009643
22:00+27ssw257615 0.0 1010397
14 may, fri
fri1401:00+26ssw248329 0.0 1010375
04:00+26wsw25896 0.0 1009283
07:00+26sw268833 0.0 1010352
10:00+31s235850 0.0 10111340
13:00+33s534953 0.0 10101748
16:00+34s534421 0.0 10071868
19:00+29ssw46670 0.0 1008605
22:00+27ssw47795 0.0 1010499
15 may, sat
sat1501:00+27sw368626 0.0 1010457
04:00+26sw378990 0.1 1009446
07:00+26sw26895 0.1 1010360
10:00+32ssw335787 0.1 10121490
13:00+34ssw434797 0.1 10101868
16:00+34ssw434572 0.1 10081719
19:00+29ssw476157 0.1 1009541
22:00+27sw487485 0.0 1010502
16 may, sun
sun1601:00+26ssw2783100 0.0 1010411
04:00+25nnw1193100 1.3 101044
07:00+25wnw2493100 1.4 1011156
10:00+30sw246287 0.0 1012949
13:00+33s434888 0.0 10101657
16:00+33s545093 0.0 10081505
19:00+29sw3565100 0.0 1009456
22:00+27ssw367594 0.0 1011462